Location: Cisewo
(53.3833°N, 14.9000°E)
Time: 12:01:03
(UTC+00:00)

Cosmos 1814 Rocket - Pass Details

Date: 18 April 2021
Orbit: 744 x 787 km, 74.1° (Epoch: 14 May)

Event Time Altitude Azimuth Distance (km) Brightness Sun altitude
Rises 21:50:54 0° 333° (NNW) 3,287 8.7 -23.8°
Reaches altitude 10° 21:53:19 10° 333° (NNW) 2,351 7.6 -23.9°
Maximum altitude 21:58:40 88° 249° (WSW) 785 3.9 -24.2°
Enters shadow 21:59:23 68° 159° (SSE) 837 3.9 -24.2°
